RH
86 89 91 90 92 93 92 90 87 86 84 80 81 82 83 79 75 67 62 56 52 48 45 43 40 38 38 41 34 32 29 29 29 28 27 27 25 22 20 19 18 21 20 20 19 18 19
84 86 87 88 92 92 92 91 86 86 86 86 87 86 86 85 84 81 80 77 70 65 59 53 49 46 48 46 37 34 34 33 34 33 31 30 27 29 25 21 20 22 22 22 21 20 18
78 81 83 82 84 86 87 83 87 86 86 86 85 85 84 86 86 85 82 79 80 78 75 75 71 71 66 57 57 56 50 42 34 36 34 33 34 34 32 27 27 26 26 25 23 21 19
68 69 72 70 70 70 72 74 75 74 77 83 85 86 84 82 84 86 83 82 80 79 78 76 73 73 66 60 60 59 58 57 55 46 39 36 38 38 37 39 36 34 31 30 26 22 20
53 52 47 50 55 55 56 57 59 62 64 66 74 75 78 79 81 81 82 83 80 79 77 75 73 74 64 62 61 60 59 59 58 57 52 47 46 46 45 45 42 39 35 31 28 25 24
42 39 39 38 37 39 39 40 40 41 42 47 53 60 67 72 73 76 77 79 82 79 77 77 77 76 65 64 65 63 64 64 65 67 65 61 56 51 51 45 41 37 38 38 33 30 30
32 34 41 44 42 38 36 37 37 37 36 36 37 40 48 52 62 66 71 75 78 79 76 73 71 66 67 67 68 68 69 68 68 68 66 68 61 51 47 46 45 42 43 42 36 31 27
34 35 38 37 37 37 38 36 36 34 34 33 34 34 35 36 40 47 56 59 69 72 68 64 67 65 66 72 66 67 71 68 73 69 69 70 61 57 57 53 53 52 53 50 48 45 41
52 50 49 48 48 49 46 44 44 42 37 36 33 31 32 31 31 31 35 39 48 58 61 42 44 50 56 65 55 57 67 66 68 71 73 70 58 61 62 62 65 60 59 58 57 56 52
68 65 63 64 62 65 64 59 55 53 49 44 44 39 36 33 30 29 32 35 37 45 44 23 31 33 39 46 45 45 53 63 64 66 74 68 68 70 67 63 71 66 66 66 65 66 58
74 73 70 71 70 71 71 71 66 64 64 61 60 57 49 46 44 42 38 36 45 44 42 24 34 36 40 43 44 46 47 59 58 62 70 51 66 72 70 66 73 64 76 74 72 68 66
72 75 78 78 77 77 76 76 78 78 72 68 62 58 61 60 57 49 50 50 64 61 42 21 35 40 44 46 48 55 55 57 58 62 64 58 66 67 67 72 75 75 79 78 75 73 69
72 72 76 80 81 83 87 89 90 84 79 75 72 67 63 61 64 60 63 73 85 68 28 21 28 37 40 47 50 53 61 61 64 75 71 62 59 63 72 73 75 77 87 98 96 85 60
72 71 70 73 75 79 87 90 91 90 87 82 77 74 72 64 72 65 75 91 89 40 39 34 38 43 44 44 47 48 57 73 69 65 62 65 64 58 55 66 74 76 88 81 84 72 54
71 72 73 74 75 77 84 97 97 95 92 87 82 76 74 81 81 85 97 99 69 50 53 52 41 50 47 45 47 54 60 60 62 66 66 59 58 63 62 60 73 78 88 73 91 86 83
74 76 74 75 78 79 84 91 97 99 98 96 90 84 76 77 90 91 98 97 86 72 74 70 61 53 46 44 57 55 54 56 53 61 68 69 81 73 75 75 75 78 80 97 98 97 93
68 78 78 76 83 85 89 92 95 96 98 99 98 93 77 72 90 97 98 89 93 89 92 84 72 76 66 62 58 52 56 62 72 69 72 76 87 84 82 78 76 83 90 93 96 93 89
68 63 70 77 84 88 94 98 96 95 98 99 98 92 74 76 89 92 93 93 93 84 93 94 90 89 80 75 78 64 53 61 77 63 60 60 76 77 73 76 83 92 95 95 99 97 93
64 61 59 54 73 87 90 96 98 98 98 98 97 91 77 85 90 82 76 87 93 93 93 98 90 82 79 74 80 72 76 84 75 67 63 61 62 70 68 75 84 89 84 95 97 98 98
44 51 54 50 48 50 68 90 98 98 98 98 96 93 84 84 83 80 79 81 84 95 96 92 96 88 86 92 91 89 89 90 85 77 74 75 72 71 64 81 92 94 97 97 98 98 98
43 43 45 48 46 44 42 61 94 99 98 98 93 86 79 81 77 81 85 83 81 82 85 89 96 91 91 92 94 94 88 91 96 97 94 94 90 82 73 77 79 80 86 85 98 98 98
68 56 49 48 48 50 45 42 77 96 99 98 92 85 81 83 74 73 77 82 88 85 96 96 96 90 98 94 83 84 91 84 86 86 92 97 98 97 84 76 74 73 67 73 79 86 96
88 85 72 62 57 56 57 47 46 80 93 96 95 87 86 81 77 80 78 75 75 82 78 91 97 94 93 98 94 85 88 85 80 81 86 93 97 91 84 79 74 77 58 65 59 67 73
96 95 93 81 69 57 57 58 48 52 62 77 87 89 93 85 78 76 76 70 64 65 77 84 90 95 89 92 83 80 79 75 78 74 86 87 94 95 82 78 87 77 61 59 63 64 61
94 97 98 96 87 73 59 67 64 60 64 72 73 82 87 84 74 73 72 66 63 53 55 68 70 73 74 75 85 92 82 78 65 67 74 81 85 89 86 79 72 68 68 70 69 57 58
82 92 96 98 96 92 76 72 71 69 63 68 75 79 78 74 66 68 66 65 63 56 46 48 58 65 75 77 75 88 84 76 73 64 59 73 83 85 78 87 84 52 61 65 73 64 50
83 81 90 96 98 95 93 90 85 83 72 70 73 71 77 73 72 73 70 67 58 53 50 52 56 56 60 75 84 79 78 79 87 75 81 81 92 90 79 80 65 46 55 63 67 50 54
95 92 86 92 97 98 96 96 93 91 83 71 79 74 77 81 78 79 77 78 76 73 72 67 58 55 55 69 80 79 80 75 85 74 78 83 92 90 84 87 78 49 59 67 49 57 53
96 96 94 89 94 98 97 96 98 96 90 78 87 85 86 82 79 77 76 75 74 74 76 73 66 58 58 75 91 92 90 85 90 83 72 76 71 76 75 66 63 63 62 64 63 57 52